Las Vegas, NV

6:15 PM PST on December 03, 2016 (GMT -0800)
Nellis Air Force Base

Weather History for KLSV - September, 2012

Change the Weather History Date:

Saturday, September 8, 2012

  Actual Average Record
Temperature  
Mean Temperature 91 °F -  
Max Temperature 102 °F 95 °F 104 °F (1999)
Min Temperature 81 °F 70 °F 68 °F (1999)
Cooling Degree Days 26    
Growing Degree Days 41 (Base 50)    
Moisture  
Dew Point 45 °F    
Average Humidity 21    
Maximum Humidity 42    
Minimum Humidity 12    
Precipitation  
Precipitation 0.00 in - - ()
Sea Level Pressure  
Sea Level Pressure 29.87 in    
Wind  
Wind Speed 8 mph (NE)    
Max Wind Speed 17 mph    
Max Gust Speed 17 mph    
Visibility 10 miles    
Events      
Averages and records for this station are not official NWS values.
T = Trace of Precipitation, MM = Missing Value Source: NWS Daily Summary

Daily Weather History Graph

Daily Weather History Graph

Search for Another Location

Airport or City:

Trip Planner

Search our weather history database for the weather conditions in past years. The results will help you decide how hot, cold, wet, or windy it might be!

Date:

Astronomy

Sep. 08, 2012 Rise Set
Actual Time 6:17 AM PDT 6:56 PM PDT
Civil Twilight 5:51 AM PDT 7:22 PM PDT
Nautical Twilight 5:20 AM PDT 7:53 PM PDT
Astronomical Twilight 4:49 AM PDT 8:24 PM PDT
Moon 11:58 PM PDT (9/8) 1:49 PM PDT (9/8)
Length of Visible Light 13h 31m
Length of Day
12h 39m
Waning Gibbous, 48% of the Moon is Illuminated
Sep 8
Waning Gibbous
Sep 15
New
Sep 22
First Quarter
Sep 29
Full
Oct 8
Last Quarter

Hourly Weather History & Observations

Time (PDT) Temp. Heat Index Dew Point Humidity Pressure Visibility Wind Dir Wind Speed Gust Speed Precip Events Conditions
12:55 AM 85.6 °F 85.0 °F 58.5 °F 40% 29.88 in 10.0 mi NE 6.9 mph - N/A   Clear
1:55 AM 86.2 °F 85.6 °F 59.0 °F 40% 29.87 in 10.0 mi ENE 10.4 mph - N/A   Clear
2:55 AM 82.9 °F 82.6 °F 57.4 °F 42% 29.88 in 10.0 mi ENE 5.8 mph - N/A   Clear
3:55 AM 81.7 °F 81.0 °F 53.4 °F 38% 29.90 in 10.0 mi ENE 9.2 mph - N/A   Clear
4:55 AM 84.7 °F - 50.7 °F 31% 29.89 in 10.0 mi ENE 6.9 mph - N/A   Mostly Cloudy
5:55 AM 85.1 °F - 48.0 °F 27% 29.91 in 10.0 mi NE 5.8 mph - N/A   Mostly Cloudy
6:55 AM 83.5 °F - 46.9 °F 28% 29.94 in 10.0 mi ENE 3.5 mph - N/A   Clear
7:55 AM 86.5 °F - 44.2 °F 23% 29.96 in 10.0 mi NE 4.6 mph - N/A   Clear
8:55 AM 92.7 °F - 42.4 °F 17% 29.95 in 10.0 mi NE 8.1 mph - N/A   Scattered Clouds
9:55 AM 94.8 °F - 41.0 °F 15% 29.95 in 10.0 mi NE 13.8 mph - N/A   Partly Cloudy
10:55 AM 96.6 °F - 40.6 °F 14% 29.93 in 10.0 mi ENE 17.3 mph - N/A   Clear
11:55 AM 98.8 °F - 40.6 °F 13% 29.91 in 10.0 mi ENE 15.0 mph - N/A   Clear
12:55 PM 99.3 °F - 41.0 °F 13% 29.89 in 10.0 mi Variable 4.6 mph - N/A   Clear
1:55 PM 100.6 °F - 41.9 °F 13% 29.86 in 10.0 mi ENE 11.5 mph 17.3 mph N/A   Clear
2:55 PM 100.9 °F - 41.5 °F 13% 29.84 in 10.0 mi NNW 4.6 mph - N/A   Clear
3:55 PM 101.7 °F - 40.8 °F 12% 29.81 in 10.0 mi ESE 8.1 mph - N/A   Clear
4:55 PM 101.3 °F - 41.4 °F 13% 29.79 in 10.0 mi Variable 6.9 mph - N/A   Clear
5:55 PM 101.5 °F - 40.6 °F 12% 29.78 in 10.0 mi WNW 4.6 mph - N/A   Clear
6:55 PM 99.0 °F - 40.6 °F 13% 29.79 in 10.0 mi SW 3.5 mph - N/A   Clear
7:55 PM 97.3 °F - 41.9 °F 15% 29.81 in 10.0 mi Calm Calm - N/A   Clear
8:55 PM 91.2 °F - 42.8 °F 19% 29.82 in 10.0 mi NE 5.8 mph - N/A   Clear
9:55 PM 88.7 °F - 42.4 °F 20% 29.82 in 10.0 mi NE 8.1 mph - N/A   Clear
10:55 PM 88.2 °F - 42.3 °F 20% 29.83 in 10.0 mi WSW 3.5 mph - N/A   Clear
11:55 PM 84.4 °F - 44.4 °F 25% 29.83 in 10.0 mi ENE 6.9 mph - N/A   Clear